EN

Hourly Weather Borki

Today, 16 April, Friday

Time Temperature Precipitation Wind Pressure Humidity
00:00 +3°C° 0 mm 4 mps 749 mmHg 95%
01:00 +3°C° 0 mm 4 mps 749 mmHg 95%
02:00 +3°C° 0 mm 4 mps 749 mmHg 95%
03:00 +3°C° 0.2 mm 4 mps 748 mmHg 95%
04:00 +2°C° 0.2 mm 5 mps 748 mmHg 95%
05:00 +2°C° 0.2 mm 5 mps 748 mmHg 95%
06:00 +3°C° 0.2 mm 5 mps 748 mmHg 95%
07:00 +3°C° 0.2 mm 5 mps 748 mmHg 96%
08:00 +3°C° 0.2 mm 5 mps 747 mmHg 96%
09:00 +5°C° 0.7 mm 4 mps 748 mmHg 95%
10:00 +5°C° 0.7 mm 4 mps 748 mmHg 95%
11:00 +5°C° 0.7 mm 4 mps 748 mmHg 94%
12:00 +6°C° 0.1 mm 4 mps 748 mmHg 91%
13:00 +7°C° 0.1 mm 4 mps 748 mmHg 88%
14:00 +8°C° 0.1 mm 4 mps 748 mmHg 85%
15:00 +8°C° 0 mm 4 mps 748 mmHg 86%
16:00 +8°C° 0 mm 4 mps 748 mmHg 87%
17:00 +8°C° 0 mm 4 mps 748 mmHg 88%
18:00 +8°C° 0.4 mm 5 mps 748 mmHg 89%
19:00 +8°C° 0.4 mm 5 mps 749 mmHg 91%
20:00 +7°C° 0.4 mm 5 mps 749 mmHg 93%
21:00 +7°C° 0 mm 5 mps 749 mmHg 93%
22:00 +7°C° 0 mm 5 mps 749 mmHg 93%
23:00 +6°C° 0 mm 5 mps 749 mmHg 94%

Tomorrow, 17 April, Saturday

Time Temperature Precipitation Wind Pressure Humidity
00:00 +6°C° 0 mm 4 mps 749 mmHg 95%
01:00 +6°C° 0 mm 4 mps 750 mmHg 95%
02:00 +5°C° 0 mm 4 mps 750 mmHg 96%
03:00 +6°C° 0 mm 4 mps 750 mmHg 95%
04:00 +6°C° 0 mm 4 mps 750 mmHg 94%
05:00 +6°C° 0 mm 4 mps 750 mmHg 93%
06:00 +7°C° 0 mm 4 mps 751 mmHg 91%
07:00 +7°C° 0 mm 4 mps 751 mmHg 90%
08:00 +7°C° 0 mm 4 mps 751 mmHg 88%
09:00 +10°C° 0 mm 4 mps 751 mmHg 82%
10:00 +11°C° 0 mm 4 mps 751 mmHg 75%
11:00 +12°C° 0 mm 4 mps 752 mmHg 68%
12:00 +13°C° 0.2 mm 4 mps 752 mmHg 64%
13:00 +13°C° 0.2 mm 4 mps 752 mmHg 60%
14:00 +14°C° 0.2 mm 4 mps 752 mmHg 56%
15:00 +14°C° 0.2 mm 4 mps 752 mmHg 59%
16:00 +13°C° 0.2 mm 3 mps 752 mmHg 62%
17:00 +13°C° 0.2 mm 3 mps 752 mmHg 65%
18:00 +12°C° 0.1 mm 3 mps 752 mmHg 72%
19:00 +10°C° 0.1 mm 3 mps 752 mmHg 79%
20:00 +9°C° 0.1 mm 3 mps 752 mmHg 86%
21:00 +8°C° 0 mm 3 mps 752 mmHg 89%
22:00 +8°C° 0 mm 3 mps 752 mmHg 92%
23:00 +7°C° 0 mm 3 mps 752 mmHg 94%

Day after tomorrow, 18 April, Sunday

Time Temperature Precipitation Wind Pressure Humidity
00:00 +7°C° 0 mm 3 mps 752 mmHg 95%
01:00 +7°C° 0 mm 2 mps 752 mmHg 95%
02:00 +7°C° 0 mm 2 mps 752 mmHg 96%
03:00 +7°C° 0 mm 3 mps 752 mmHg 95%
04:00 +7°C° 0 mm 3 mps 752 mmHg 94%
05:00 +7°C° 0 mm 3 mps 752 mmHg 93%
06:00 +7°C° 0 mm 4 mps 752 mmHg 89%
07:00 +8°C° 0 mm 4 mps 752 mmHg 85%
08:00 +9°C° 0 mm 5 mps 752 mmHg 81%
09:00 +10°C° 0 mm 5 mps 752 mmHg 75%
10:00 +12°C° 0 mm 5 mps 752 mmHg 69%
11:00 +14°C° 0 mm 5 mps 752 mmHg 62%
12:00 +14°C° 0 mm 5 mps 752 mmHg 61%
13:00 +14°C° 0 mm 5 mps 752 mmHg 60%
14:00 +14°C° 0 mm 5 mps 752 mmHg 59%
15:00 +13°C° 0 mm 5 mps 752 mmHg 62%
16:00 +13°C° 0 mm 4 mps 752 mmHg 65%
17:00 +12°C° 0 mm 4 mps 752 mmHg 69%
18:00 +11°C° 0 mm 3 mps 752 mmHg 72%
19:00 +11°C° 0 mm 3 mps 752 mmHg 75%
20:00 +10°C° 0 mm 3 mps 753 mmHg 78%
21:00 +10°C° 0 mm 2 mps 753 mmHg 79%
22:00 +9°C° 0 mm 2 mps 753 mmHg 80%
23:00 +9°C° 0 mm 2 mps 753 mmHg 81%

19 April, Monday

Time Temperature Precipitation Wind Pressure Humidity
00:00 +9°C° 0 mm 2 mps 753 mmHg 82%
01:00 +8°C° 0 mm 2 mps 752 mmHg 83%
02:00 +8°C° 0 mm 2 mps 752 mmHg 84%
03:00 +8°C° 0 mm 2 mps 752 mmHg 85%
04:00 +7°C° 0 mm 3 mps 752 mmHg 85%
05:00 +7°C° 0 mm 3 mps 752 mmHg 86%
06:00 +6°C° 0 mm 4 mps 752 mmHg 81%
07:00 +6°C° 0 mm 5 mps 752 mmHg 77%
08:00 +7°C° 0 mm 5 mps 752 mmHg 73%
09:00 +7°C° 0 mm 5 mps 752 mmHg 71%
10:00 +7°C° 0 mm 5 mps 751 mmHg 69%
11:00 +8°C° 0 mm 5 mps 751 mmHg 67%
12:00 +8°C° 0 mm 5 mps 751 mmHg 69%
13:00 +8°C° 0 mm 5 mps 751 mmHg 70%
14:00 +8°C° 0 mm 4 mps 751 mmHg 71%
15:00 +8°C° 0.1 mm 4 mps 750 mmHg 70%
16:00 +8°C° 0.1 mm 4 mps 750 mmHg 68%
17:00 +10°C° 0.1 mm 4 mps 750 mmHg 67%
18:00 +8°C° 0 mm 4 mps 749 mmHg 72%
19:00 +7°C° 0 mm 4 mps 749 mmHg 77%
20:00 +6°C° 0 mm 4 mps 749 mmHg 82%
21:00 +6°C° 0.1 mm 4 mps 749 mmHg 84%
22:00 +6°C° 0.1 mm 4 mps 748 mmHg 85%
23:00 +6°C° 0.1 mm 4 mps 748 mmHg 87%

20 April, Tuesday

Time Temperature Precipitation Wind Pressure Humidity
00:00 +6°C° 0.3 mm 4 mps 747 mmHg 88%
01:00 +6°C° 0.3 mm 4 mps 747 mmHg 89%
02:00 +5°C° 0.3 mm 4 mps 746 mmHg 90%
03:00 +5°C° 0.2 mm 4 mps 746 mmHg 90%
04:00 +5°C° 0.2 mm 4 mps 746 mmHg 91%
05:00 +5°C° 0.2 mm 4 mps 745 mmHg 91%
06:00 +5°C° 0.2 mm 4 mps 745 mmHg 90%
07:00 +5°C° 0.2 mm 4 mps 745 mmHg 89%
08:00 +5°C° 0.2 mm 4 mps 745 mmHg 89%
09:00 +6°C° 0.2 mm 4 mps 744 mmHg 87%
10:00 +6°C° 0.2 mm 5 mps 744 mmHg 85%
11:00 +7°C° 0.2 mm 5 mps 744 mmHg 84%
12:00 +7°C° 0.1 mm 5 mps 743 mmHg 83%
13:00 +7°C° 0.1 mm 5 mps 743 mmHg 82%
14:00 +7°C° 0.1 mm 6 mps 742 mmHg 81%
15:00 +5°C° 0.1 mm 6 mps 742 mmHg 83%
16:00 +5°C° 0.1 mm 6 mps 741 mmHg 86%
17:00 +4°C° 0.1 mm 6 mps 740 mmHg 88%
18:00 +4°C° 0.3 mm 6 mps 740 mmHg 88%
19:00 +4°C° 0.3 mm 7 mps 739 mmHg 89%
20:00 +4°C° 0.3 mm 7 mps 739 mmHg 89%
21:00 +4°C° 1.3 mm 7 mps 738 mmHg 91%
22:00 +4°C° 1.3 mm 7 mps 738 mmHg 92%
23:00 +3°C° 1.3 mm 7 mps 737 mmHg 93%

21 April, Wednesday

Time Temperature Precipitation Wind Pressure Humidity
00:00 +3°C° 1.3 mm 6 mps 737 mmHg 94%
01:00 +3°C° 1.3 mm 6 mps 736 mmHg 95%
02:00 +3°C° 1.3 mm 6 mps 736 mmHg 96%
03:00 +2°C° 1 mm 6 mps 736 mmHg 96%
04:00 +2°C° 1 mm 6 mps 736 mmHg 96%
05:00 +2°C° 1 mm 6 mps 736 mmHg 96%
06:00 +2°C° 0.5 mm 6 mps 736 mmHg 96%
07:00 +2°C° 0.5 mm 6 mps 736 mmHg 96%
08:00 +2°C° 0.5 mm 6 mps 736 mmHg 96%
09:00 +2°C° 0.3 mm 6 mps 737 mmHg 96%
10:00 +2°C° 0.3 mm 6 mps 737 mmHg 96%
11:00 +2°C° 0.3 mm 6 mps 737 mmHg 96%
12:00 +2°C° 0.4 mm 7 mps 738 mmHg 96%
13:00 +2°C° 0.4 mm 7 mps 739 mmHg 96%
14:00 +2°C° 0.4 mm 7 mps 739 mmHg 95%
15:00 +3°C° 0.2 mm 7 mps 740 mmHg 92%
16:00 +4°C° 0.2 mm 7 mps 740 mmHg 88%
17:00 +4°C° 0.2 mm 7 mps 741 mmHg 85%
18:00 +4°C° 0 mm 7 mps 741 mmHg 83%
19:00 +4°C° 0 mm 6 mps 742 mmHg 81%
20:00 +4°C° 0 mm 6 mps 743 mmHg 79%
21:00 +3°C° 0 mm 5 mps 743 mmHg 81%
22:00 +3°C° 0 mm 5 mps 743 mmHg 83%
23:00 +3°C° 0 mm 4 mps 744 mmHg 84%
Show more

We Need Your Consent

Meteoprog and our Service Providers may store and access personal data such as cookies, device identifiers or other similar technologies on your device and process such data to personalise content and ads, as well as provide social media features and to analyse the traffic.

  • Store and/or access information on your device

    Cookies, device identifiers or other information can be stored or accessed on your device for the purposes indicated above.

  • Personalised ads and content, ad and content measurement, audience insights, and products development

    Ads and content can be personalised based on a profile. More data can be added to better personalise ads and content. Ad and content performance can be measured. Insights about the audience who saw the ads and content can be derived. Such data can be used to develop or improve user’s experience, systems and software.

By clicking ‘I Agree’ you will allow the use of indicated cookies, device identifiers, web beacons or other similar technologies. Your settings can be changed in the browser on your device.

For certain purposes, legitimate interests may be relied on, rather than consent. You can read more about this in our Privacy and Cookie Policy.